"startDT [UTC]","vpos","CH4 [ppm]","stdev(CH4) [ppm]","CO2 [ppm]","stdev(CO2) [ppm]","H2O_reported [%]","stdev(H2O_reported)","CavityPressure [torr]","CavityTemp [C]","OutletValve","CH4_dry [ppm]","CO2_dry [ppm]","DasTemp [C]","EtalonTemp [C]","WarmBoxTemp [C]","MPVPosition","T_ECpre [C]","T_EC1 [C]","T_EC2 [C]","p_inlet [hPa]","p_in [hPa]","p_out [hPa]","T_inlet [C]","RH_inlet [%]","dwpt_inlet [C]","T_vent [C]","RH_vent [%]","dwpt_vent [C]","flow_vent [l min-1]","flow_inlet [l min-1]","dwpt_sample [C]","T_room [C]"
2015-05-09 00:00:00,0.0,1.90964,0.00042,404.242,0.033,0.1729,0.0017,139.998,45.000,33994.96689,1.91291,405.086,31.925,45.068,45.000,0.00,0.09,-272.72,-272.78,3,951,-0,19.6,5.7,-19.5,19.5,5.9,-19.3,5.73,2.05,-11.8,24.5
2015-05-09 00:01:00,0.0,1.90988,0.00040,404.269,0.040,0.1696,0.0022,140.004,45.000,33993.15263,1.91307,405.097,31.934,45.068,45.000,0.00,0.09,-272.72,-272.78,3,949,-0,19.6,5.6,-19.8,19.5,5.8,-19.5,5.73,1.96,-11.8,24.6
2015-05-09 00:02:00,0.0,1.90984,0.00032,404.265,0.028,0.1674,0.0013,139.999,45.000,33992.80340,1.91298,405.082,31.938,45.068,45.000,0.00,0.09,-272.72,-272.77,3,949,-0,19.6,5.5,-19.9,19.5,5.7,-19.7,5.73,1.94,-11.8,24.6
2015-05-09 00:03:00,0.0,1.90989,0.00050,404.256,0.032,0.1668,0.0023,139.998,45.000,33993.18034,1.91308,405.069,31.944,45.068,45.000,0.00,0.09,-272.72,-272.77,3,949,-0,19.6,5.5,-20.0,19.5,5.6,-19.7,5.73,2.04,-11.8,24.6
2015-05-09 00:04:00,0.0,1.90944,0.00033,404.266,0.031,0.1653,0.0011,140.004,45.000,33997.30539,1.91252,405.074,31.964,45.068,45.000,0.00,0.09,-272.72,-272.78,2,952,-0,19.6,5.4,-20.1,19.5,5.6,-19.9,5.73,2.07,-11.8,24.6
2015-05-09 00:05:00,0.0,1.90968,0.00041,404.255,0.031,0.1640,0.0016,139.999,45.000,33995.52159,1.91278,405.055,31.969,45.068,45.000,0.00,0.09,-272.72,-272.77,2,950,-0,19.6,5.4,-20.2,19.5,5.5,-20.0,5.73,1.97,-11.8,24.5
2015-05-09 00:06:00,0.0,1.90977,0.00043,404.230,0.034,0.1645,0.0015,139.999,45.000,33996.47268,1.91286,405.032,31.964,45.068,45.000,0.00,0.09,-272.72,-272.77,3,949,-0,19.6,5.4,-20.2,19.5,5.5,-20.0,5.73,1.94,-11.8,24.6
2015-05-09 00:07:00,0.0,1.90965,0.00035,404.250,0.036,0.1612,0.0020,139.997,45.000,33994.41311,1.91270,405.036,31.939,45.068,45.000,0.00,0.09,-272.73,-272.78,3,951,-0,19.6,5.3,-20.4,19.5,5.5,-20.1,5.73,2.02,-11.8,24.6
2015-05-09 00:08:00,0.0,1.91021,0.00047,404.273,0.025,0.1591,0.0017,139.999,45.000,33992.08968,1.91317,405.049,31.938,45.068,45.000,0.00,0.09,-272.72,-272.78,2,952,-0,19.6,5.2,-20.6,19.5,5.4,-20.3,5.73,2.07,-11.8,24.6
2015-05-09 00:09:00,0.0,1.91011,0.00020,404.284,0.032,0.1595,0.0013,139.997,45.000,33988.51851,1.91315,405.063,31.943,45.069,45.000,0.00,0.09,-272.72,-272.78,2,950,-0,19.6,5.2,-20.6,19.5,5.4,-20.4,5.73,1.99,-11.8,24.6
2015-05-09 00:10:00,0.0,1.90982,0.00046,404.257,0.030,0.1594,0.0011,140.000,45.000,33991.84576,1.91285,405.035,31.968,45.069,45.000,0.00,0.09,-272.72,-272.78,3,949,-0,19.6,5.2,-20.5,19.5,5.3,-20.4,5.73,1.93,-11.8,24.6
2015-05-09 00:11:00,0.0,1.90989,0.00035,404.258,0.024,0.1620,0.0020,140.002,45.000,33993.25545,1.91294,405.048,31.954,45.069,45.000,0.00,0.09,-272.72,-272.78,3,952,-0,19.6,5.3,-20.4,19.5,5.4,-20.2,5.73,2.01,-11.8,24.6
2015-05-09 00:12:00,0.0,1.91007,0.00033,404.256,0.034,0.1624,0.0016,140.000,45.000,33994.00008,1.91308,405.048,31.938,45.068,45.000,0.00,0.09,-272.72,-272.77,3,951,-0,19.6,5.4,-20.3,19.5,5.4,-20.1,5.73,2.08,-11.8,24.6
2015-05-09 00:13:00,0.0,1.90971,0.00035,404.271,0.027,0.1659,0.0027,139.999,45.000,33994.50684,1.91289,405.081,31.930,45.068,45.000,0.00,0.09,-272.72,-272.77,2,949,-0,19.6,5.5,-20.1,19.5,5.5,-20.0,5.73,1.99,-11.8,24.6
2015-05-09 00:14:00,0.0,1.90965,0.00045,404.226,0.037,0.1692,0.0019,139.997,45.000,33992.87809,1.91285,405.050,31.905,45.068,45.000,0.00,0.09,-272.72,-272.78,3,949,-0,19.6,5.6,-19.8,19.5,5.6,-19.8,5.73,1.92,-11.8,24.6
2015-05-09 00:15:00,0.0,1.90945,0.00046,404.236,0.028,0.1729,0.0023,140.005,45.000,33996.52219,1.91271,405.079,31.906,45.069,45.000,0.00,0.09,-272.72,-272.77,3,951,-0,19.6,5.7,-19.6,19.5,5.7,-19.5,5.73,1.98,-11.8,24.6
2015-05-09 00:16:00,0.0,1.90978,0.00038,404.245,0.032,0.1744,0.0018,140.004,45.000,33992.37462,1.91304,405.096,31.915,45.069,45.000,0.00,0.09,-272.72,-272.77,3,951,-0,19.6,5.8,-19.4,19.5,5.8,-19.4,5.73,2.08,-11.8,24.6
2015-05-09 00:17:00,0.0,1.90963,0.00048,404.235,0.030,0.1734,0.0015,139.997,45.000,33989.82380,1.91293,405.081,31.912,45.069,45.000,0.00,0.09,-272.73,-272.78,3,948,-0,19.6,5.7,-19.5,19.5,5.8,-19.3,5.73,2.01,-11.8,24.6
2015-05-09 00:18:00,0.0,1.90935,0.00035,404.220,0.031,0.1714,0.0018,139.999,45.000,33990.56338,1.91259,405.058,31.916,45.069,45.000,0.00,0.09,-272.72,-272.78,3,949,-0,19.6,5.7,-19.6,19.5,5.8,-19.4,5.73,1.92,-11.8,24.6
2015-05-09 00:19:00,0.0,1.90947,0.00027,404.249,0.026,0.1673,0.0018,140.003,45.000,33994.52586,1.91263,405.065,31.933,45.069,45.000,0.00,0.09,-272.72,-272.77,3,951,-0,19.6,5.5,-19.9,19.5,5.7,-19.6,5.73,1.99,-11.8,24.6
2015-05-09 00:20:00,0.0,1.90961,0.00042,404.267,0.032,0.1666,0.0022,139.998,45.000,33991.31737,1.91273,405.081,31.933,45.069,45.000,0.00,0.09,-272.72,-272.78,2,950,-0,19.6,5.5,-20.0,19.5,5.6,-19.8,5.73,2.09,-11.8,24.6
2015-05-09 00:21:00,0.0,1.90967,0.00043,404.247,0.043,0.1663,0.0019,139.999,45.000,33989.73794,1.91279,405.060,31.935,45.068,45.000,0.00,0.09,-272.73,-272.78,3,948,-0,19.6,5.5,-20.0,19.5,5.6,-19.8,5.73,2.01,-11.8,24.6
2015-05-09 00:22:00,0.0,1.91005,0.00041,404.248,0.028,0.1663,0.0011,139.999,45.000,33988.47639,1.91318,405.058,31.952,45.068,45.000,0.00,0.09,-272.72,-272.78,4,949,-0,19.6,5.5,-20.0,19.5,5.6,-19.8,5.73,1.91,-11.8,24.6
2015-05-09 00:23:00,0.0,1.90984,0.00035,404.245,0.030,0.1640,0.0017,140.005,45.000,33993.56832,1.91295,405.045,31.954,45.068,45.000,0.00,0.09,-272.71,-272.77,3,950,-0,19.6,5.4,-20.1,19.5,5.6,-19.9,5.73,1.99,-11.8,24.6
2015-05-09 00:24:00,0.0,1.90946,0.00028,404.243,0.021,0.1624,0.0018,139.995,45.000,33991.52473,1.91253,405.036,31.991,45.068,45.000,0.00,0.09,-272.73,-272.78,2,949,-0,19.6,5.3,-20.3,19.5,5.5,-20.1,5.73,2.08,-11.8,24.6
2015-05-09 00:25:00,0.0,1.91012,0.00041,404.273,0.028,0.1620,0.0017,140.001,45.000,33989.21865,1.91315,405.063,31.994,45.068,45.000,0.00,0.09,-272.72,-272.78,3,948,-0,19.6,5.3,-20.3,19.5,5.4,-20.1,5.73,2.02,-11.9,24.6
2015-05-09 00:26:00,0.0,1.90992,0.00044,404.258,0.029,0.1632,0.0019,140.001,45.000,33991.09962,1.91305,405.055,31.990,45.068,45.000,0.00,0.09,-272.72,-272.77,4,950,-0,19.6,5.4,-20.3,19.5,5.4,-20.1,5.73,1.91,-11.8,24.6
2015-05-09 00:27:00,0.0,1.90975,0.00025,404.268,0.034,0.1630,0.0019,139.998,45.000,33993.49751,1.91279,405.063,31.987,45.068,45.000,0.00,0.09,-272.72,-272.77,3,951,-0,19.6,5.4,-20.2,19.5,5.5,-20.1,5.73,1.97,-11.8,24.6
2015-05-09 00:28:00,0.0,1.90976,0.00026,404.264,0.026,0.1651,0.0017,139.995,45.000,33994.47490,1.91288,405.069,31.975,45.068,45.000,0.00,0.09,-272.73,-272.77,2,951,-0,19.6,5.4,-20.1,19.5,5.5,-20.0,5.73,2.07,-11.9,24.6
2015-05-09 00:29:00,0.0,1.90965,0.00041,404.230,0.025,0.1668,0.0019,140.001,45.000,33995.47111,1.91282,405.044,31.947,45.068,45.000,0.00,0.09,-272.72,-272.78,3,948,-0,19.6,5.5,-20.0,19.5,5.6,-19.9,5.73,2.05,-11.8,24.6
2015-05-09 00:30:00,0.0,1.90949,0.00030,404.218,0.027,0.1690,0.0015,139.997,45.000,33996.63176,1.91269,405.042,31.942,45.068,45.000,0.00,0.09,-272.71,-272.78,3,949,-0,19.6,5.6,-19.8,19.5,5.6,-19.7,5.73,1.93,-11.9,24.6
2015-05-09 00:31:00,0.0,1.90951,0.00029,404.243,0.043,0.1693,0.0017,139.999,45.000,33997.06124,1.91266,405.067,31.940,45.069,45.000,0.00,0.09,-272.72,-272.77,3,951,-0,19.6,5.6,-19.7,19.5,5.7,-19.6,5.73,1.94,-11.9,24.6
2015-05-09 00:32:00,0.0,1.90947,0.00044,404.233,0.031,0.1713,0.0019,139.996,45.000,33993.07531,1.91273,405.071,31.935,45.069,45.000,0.00,0.09,-272.72,-272.77,2,951,-0,19.6,5.7,-19.6,19.5,5.7,-19.5,5.73,2.05,-11.9,24.6
2015-05-09 00:33:00,0.0,1.90943,0.00042,404.229,0.030,0.1746,0.0019,139.993,45.000,33994.49493,1.91271,405.079,31.937,45.069,45.000,0.00,0.09,-272.72,-272.77,3,949,-0,19.6,5.8,-19.4,19.5,5.8,-19.4,5.73,2.08,-11.9,24.6
2015-05-09 00:34:00,0.0,1.90917,0.00045,404.234,0.047,0.1804,0.0026,139.993,45.000,33996.08018,1.91257,405.116,31.925,45.069,45.000,0.00,0.09,-272.72,-272.78,3,949,-0,19.6,6.0,-19.0,19.5,6.0,-19.1,5.73,1.97,-11.9,24.6
2015-05-09 00:35:00,0.0,1.90940,0.00029,404.210,0.033,0.1844,0.0019,139.999,45.000,33995.50378,1.91288,405.110,31.899,45.069,45.000,0.00,0.09,-272.72,-272.78,3,950,-0,19.6,6.1,-18.7,19.5,6.1,-18.7,5.73,1.92,-11.9,24.6
2015-05-09 00:36:00,0.0,1.90929,0.00043,404.219,0.034,0.1840,0.0019,140.004,45.000,33994.70602,1.91276,405.115,31.886,45.069,45.000,0.00,0.09,-272.71,-272.77,2,951,-0,19.6,6.1,-18.7,19.5,6.2,-18.6,5.73,2.03,-11.9,24.6
2015-05-09 00:37:00,0.0,1.90955,0.00028,404.227,0.020,0.1814,0.0026,140.000,45.000,33991.67220,1.91296,405.114,31.890,45.069,45.000,0.00,0.09,-272.72,-272.78,2,951,-0,19.6,6.0,-18.9,19.5,6.1,-18.7,5.73,2.08,-11.9,24.6
2015-05-09 00:38:00,0.0,1.90947,0.00037,404.246,0.023,0.1768,0.0018,140.001,45.000,33993.27829,1.91282,405.110,31.918,45.069,45.000,0.00,0.09,-272.73,-272.79,3,948,-0,19.7,5.9,-19.2,19.5,6.0,-19.0,5.73,1.99,-11.9,24.7
2015-05-09 00:39:00,0.0,1.90967,0.00041,404.246,0.037,0.1739,0.0017,140.001,45.000,33993.14258,1.91296,405.094,31.932,45.069,45.000,0.00,0.09,-272.71,-272.77,3,950,-0,19.7,5.7,-19.4,19.5,5.9,-19.2,5.73,1.90,-11.9,24.6
2015-05-09 00:40:00,0.0,1.90947,0.00040,404.290,0.039,0.1696,0.0020,139.997,45.000,33993.93619,1.91266,405.120,31.938,45.069,45.000,0.00,0.09,-272.72,-272.78,3,951,-0,19.7,5.6,-19.7,19.5,5.8,-19.5,5.73,2.01,-11.9,24.7
2015-05-09 00:41:00,0.0,1.90955,0.00033,404.286,0.035,0.1667,0.0020,140.002,45.000,33996.66237,1.91271,405.099,31.940,45.068,45.000,0.00,0.09,-272.73,-272.78,2,950,-0,19.7,5.5,-20.0,19.5,5.6,-19.7,5.73,2.09,-11.9,24.6
2015-05-09 00:42:00,0.0,1.90961,0.00048,404.279,0.040,0.1659,0.0018,139.998,45.000,33993.01585,1.91274,405.088,31.942,45.068,45.000,0.00,0.09,-272.72,-272.78,3,949,-0,19.7,5.4,-20.0,19.5,5.6,-19.9,5.73,1.99,-11.9,24.7
2015-05-09 00:43:00,0.0,1.90961,0.00038,404.271,0.018,0.1696,0.0030,139.999,45.000,33993.26611,1.91280,405.098,31.948,45.068,45.000,0.00,0.09,-272.72,-272.77,3,950,-0,19.7,5.6,-19.8,19.5,5.6,-19.8,5.73,1.91,-11.9,24.6
2015-05-09 00:44:00,0.0,1.90961,0.00034,404.231,0.044,0.1767,0.0021,139.997,45.000,33991.92026,1.91293,405.094,31.951,45.068,45.000,0.00,0.09,-272.73,-272.77,3,952,-0,19.7,5.8,-19.3,19.5,5.8,-19.4,5.73,2.00,-11.9,24.6
2015-05-09 00:45:00,0.0,1.90949,0.00037,404.227,0.033,0.1767,0.0025,140.004,45.000,33994.72190,1.91283,405.089,31.972,45.068,45.000,0.00,0.09,-272.72,-272.78,2,949,-0,19.7,5.8,-19.3,19.5,5.9,-19.2,5.73,2.08,-11.9,24.6
2015-05-09 00:46:00,0.0,1.90946,0.00034,404.286,0.030,0.1714,0.0016,139.995,45.000,33989.17880,1.91272,405.122,31.996,45.068,45.000,0.00,0.09,-272.71,-272.77,3,949,-0,19.7,5.7,-19.6,19.5,5.8,-19.4,5.73,2.00,-11.8,24.6
2015-05-09 00:47:00,0.0,1.90966,0.00048,404.263,0.033,0.1700,0.0017,139.995,45.000,33986.22336,1.91283,405.094,31.994,45.068,45.000,0.00,0.09,-272.71,-272.78,3,950,-0,19.7,5.6,-19.7,19.5,5.7,-19.5,5.73,1.90,-11.8,24.6
2015-05-09 00:48:00,0.0,1.90980,0.00037,404.276,0.025,0.1680,0.0020,139.998,45.000,33986.41378,1.91301,405.096,31.955,45.068,45.000,0.00,0.09,-272.73,-272.78,2,950,-0,19.7,5.6,-19.8,19.5,5.7,-19.6,5.73,1.99,-11.8,24.7
2015-05-09 00:49:00,0.0,1.90971,0.00039,404.247,0.048,0.1690,0.0016,140.000,45.000,33990.38853,1.91286,405.071,31.938,45.068,45.000,0.00,0.09,-272.72,-272.78,3,949,-0,19.7,5.6,-19.8,19.5,5.7,-19.7,5.73,2.09,-11.9,24.7
2015-05-09 00:50:00,0.0,1.90974,0.00044,404.258,0.030,0.1677,0.0016,140.003,45.000,33992.06890,1.91295,405.078,31.940,45.068,45.000,0.00,0.09,-272.72,-272.78,3,949,-0,19.7,5.5,-19.9,19.6,5.6,-19.7,5.73,2.01,-11.9,24.7
2015-05-09 00:51:00,0.0,1.90995,0.00038,404.247,0.028,0.1647,0.0023,140.002,45.000,33991.71961,1.91303,405.050,31.953,45.069,45.000,0.00,0.09,-272.72,-272.78,3,951,-0,19.7,5.4,-20.1,19.6,5.6,-19.9,5.73,1.90,-11.8,24.6
2015-05-09 00:52:00,0.0,1.90995,0.00032,404.278,0.025,0.1645,0.0019,140.005,45.000,33993.18647,1.91303,405.079,31.952,45.069,45.000,0.00,0.09,-272.72,-272.77,2,951,-0,19.7,5.4,-20.2,19.6,5.5,-20.0,5.73,1.97,-11.8,24.6
2015-05-09 00:53:00,0.0,1.91000,0.00040,404.265,0.039,0.1657,0.0016,139.999,45.000,33994.60389,1.91315,405.075,31.956,45.068,45.000,0.00,0.09,-272.72,-272.78,2,950,-0,19.7,5.4,-20.1,19.5,5.5,-20.0,5.73,2.08,-11.8,24.7
2015-05-09 00:54:00,0.0,1.90998,0.00037,404.284,0.028,0.1669,0.0019,139.999,45.000,33991.80124,1.91313,405.098,31.953,45.068,45.000,0.00,0.09,-272.72,-272.78,4,948,-0,19.7,5.5,-20.0,19.6,5.6,-19.9,5.73,2.03,-11.9,24.7
2015-05-09 00:55:00,0.0,1.91013,0.00037,404.277,0.035,0.1676,0.0016,140.001,45.000,33995.51920,1.91327,405.094,31.964,45.069,45.000,0.00,0.09,-272.72,-272.78,3,951,-0,19.7,5.5,-19.9,19.6,5.6,-19.8,5.73,1.90,-11.9,24.6
2015-05-09 00:56:00,0.0,1.90998,0.00030,404.234,0.034,0.1672,0.0017,139.997,45.000,33993.48061,1.91316,405.051,31.991,45.069,45.000,0.00,0.09,-272.72,-272.77,3,952,-0,19.7,5.5,-19.9,19.6,5.6,-19.8,5.73,1.95,-11.8,24.6
2015-05-09 00:57:00,0.0,1.90982,0.00033,404.254,0.029,0.1680,0.0017,139.993,45.000,33994.75162,1.91298,405.073,31.996,45.068,45.000,0.00,0.09,-272.72,-272.77,2,950,-0,19.7,5.5,-19.9,19.6,5.6,-19.8,5.73,2.07,-11.9,24.7
2015-05-09 00:58:00,0.0,1.90989,0.00029,404.266,0.027,0.1703,0.0021,139.995,45.000,33993.71836,1.91310,405.094,31.998,45.068,45.000,0.00,0.09,-272.72,-272.78,3,949,-0,19.7,5.6,-19.7,19.6,5.7,-19.6,5.73,2.05,-11.9,24.7
2015-05-09 00:59:00,0.0,1.90979,0.00034,404.270,0.034,0.1714,0.0018,139.998,45.000,33994.58645,1.91303,405.107,31.997,45.068,45.000,0.00,0.09,-272.72,-272.77,4,950,-0,19.7,5.6,-19.7,19.6,5.7,-19.6,5.73,1.94,-11.9,24.7
2015-05-09 01:00:00,0.0,1.91013,0.00040,404.241,0.037,0.1731,0.0019,139.998,45.000,33992.67756,1.91339,405.087,31.999,45.068,45.000,0.00,0.09,-272.72,-272.77,3,951,-0,19.7,5.7,-19.5,19.6,5.8,-19.4,5.73,1.92,-11.9,24.6
2015-05-09 01:01:00,0.0,1.90989,0.00053,404.223,0.024,0.1761,0.0016,140.006,45.000,33994.24941,1.91321,405.083,31.996,45.068,45.000,0.00,0.09,-272.72,-272.78,2,952,-0,19.7,5.8,-19.3,19.6,5.9,-19.2,5.73,2.05,-11.9,24.6
2015-05-09 01:02:00,0.0,1.90984,0.00030,404.225,0.024,0.1761,0.0018,139.994,45.000,33990.83057,1.91316,405.084,31.992,45.068,45.000,0.00,0.09,-272.72,-272.78,3,949,-0,19.7,5.8,-19.3,19.6,5.9,-19.2,5.73,2.08,-11.8,24.7
2015-05-09 01:03:00,0.0,1.90985,0.00038,404.228,0.041,0.1776,0.0017,139.997,45.000,33991.22923,1.91318,405.095,31.985,45.068,45.000,0.00,0.09,-272.71,-272.77,3,949,-0,19.7,5.9,-19.2,19.6,5.9,-19.1,5.73,1.95,-11.8,24.7
2015-05-09 01:04:00,0.0,1.90972,0.00039,404.197,0.030,0.1779,0.0016,139.997,45.000,33993.40755,1.91309,405.065,31.977,45.069,45.000,0.00,0.09,-272.72,-272.78,3,952,-0,19.7,5.9,-19.1,19.6,6.0,-19.1,5.73,1.91,-11.9,24.7
2015-05-09 01:05:00,0.0,1.90989,0.00047,404.228,0.032,0.1780,0.0015,140.001,45.000,33991.21720,1.91327,405.095,31.994,45.069,45.000,0.00,0.09,-272.72,-272.78,2,951,-0,19.7,5.9,-19.2,19.6,6.0,-19.0,5.73,2.03,-11.9,24.7
2015-05-09 01:06:00,0.0,1.90952,0.00050,404.225,0.044,0.1768,0.0019,140.003,45.000,33993.92210,1.91288,405.088,31.979,45.069,45.000,0.00,0.09,-272.71,-272.78,3,948,-0,19.7,5.9,-19.2,19.6,6.0,-19.1,5.73,2.08,-11.9,24.7
2015-05-09 01:07:00,0.0,1.90957,0.00044,404.261,0.028,0.1735,0.0027,140.002,45.000,33991.83957,1.91280,405.108,31.960,45.069,45.000,0.00,0.09,-272.72,-272.77,3,949,-0,19.7,5.7,-19.4,19.6,5.9,-19.2,5.73,1.97,-11.9,24.7
2015-05-09 01:08:00,0.0,1.90985,0.00051,404.267,0.043,0.1715,0.0018,140.005,45.000,33990.19894,1.91308,405.103,31.946,45.069,45.000,0.00,0.09,-272.73,-272.78,2,951,-0,19.7,5.6,-19.7,19.6,5.8,-19.4,5.73,1.91,-11.9,24.7
2015-05-09 01:09:00,0.0,1.90998,0.00036,404.287,0.032,0.1706,0.0018,140.006,45.000,33989.03516,1.91320,405.120,31.969,45.069,45.000,0.00,0.09,-272.73,-272.78,2,950,-0,19.7,5.6,-19.7,19.6,5.7,-19.5,5.73,2.03,-11.8,24.7
2015-05-09 01:10:00,0.0,1.91000,0.00029,404.271,0.037,0.1713,0.0018,139.999,45.000,33985.27002,1.91321,405.109,31.993,45.069,45.000,0.00,0.09,-272.72,-272.77,3,949,-0,19.7,5.6,-19.6,19.6,5.7,-19.5,5.73,2.08,-11.8,24.7
2015-05-09 01:11:00,0.0,1.90957,0.00048,404.241,0.034,0.1731,0.0017,140.000,45.000,33988.13055,1.91287,405.086,32.000,45.069,45.000,0.00,0.09,-272.72,-272.77,4,949,-0,19.7,5.7,-19.5,19.6,5.8,-19.4,5.73,1.97,-11.9,24.7
2015-05-09 01:12:00,0.0,1.90951,0.00037,404.228,0.041,0.1728,0.0020,139.994,45.000,33988.66393,1.91275,405.069,32.001,45.068,45.000,0.00,0.09,-272.72,-272.78,3,951,-0,19.7,5.7,-19.5,19.6,5.8,-19.4,5.73,1.91,-11.9,24.7
2015-05-09 01:13:00,0.0,1.90983,0.00043,404.263,0.028,0.1737,0.0021,139.995,45.000,33986.26741,1.91311,405.112,32.001,45.068,45.000,0.00,0.09,-272.72,-272.77,2,949,-0,19.7,5.7,-19.5,19.6,5.8,-19.3,5.73,2.02,-11.8,24.6
2015-05-09 01:14:00,0.0,1.90977,0.00041,404.261,0.028,0.1727,0.0016,140.003,45.000,33989.41527,1.91302,405.104,32.000,45.068,45.000,0.00,0.09,-272.72,-272.78,3,948,-0,19.7,5.7,-19.5,19.6,5.8,-19.4,5.73,2.08,-11.9,24.7
2015-05-09 01:15:00,0.0,1.90944,0.00026,404.253,0.024,0.1730,0.0019,140.000,45.000,33992.33969,1.91269,405.097,32.000,45.068,45.000,0.00,0.09,-272.72,-272.78,3,950,-0,19.7,5.7,-19.6,19.6,5.8,-19.4,5.73,1.97,-11.9,24.7
2015-05-09 01:16:00,0.0,1.90963,0.00034,404.264,0.041,0.1695,0.0016,139.998,45.000,33990.86677,1.91282,405.090,32.001,45.068,45.000,0.00,0.09,-272.72,-272.77,3,950,-0,19.7,5.6,-19.7,19.6,5.7,-19.5,5.73,1.92,-11.8,24.6
2015-05-09 01:17:00,0.0,1.90992,0.00048,404.302,0.033,0.1696,0.0019,140.000,45.000,33988.77361,1.91315,405.130,32.007,45.068,45.000,0.00,0.09,-272.72,-272.78,3,949,-0,19.7,5.6,-19.7,19.6,5.7,-19.6,5.73,2.03,-11.9,24.6
2015-05-09 01:18:00,0.0,1.90951,0.00034,404.277,0.026,0.1702,0.0015,139.998,45.000,33989.92162,1.91273,405.108,32.045,45.068,45.000,0.00,0.09,-272.72,-272.78,3,949,-0,19.7,5.6,-19.7,19.6,5.7,-19.6,5.73,2.07,-11.9,24.7
2015-05-09 01:19:00,0.0,1.90954,0.00034,404.278,0.028,0.1671,0.0021,139.997,45.000,33988.89800,1.91269,405.094,32.055,45.068,45.000,0.00,0.09,-272.72,-272.78,2,951,-0,19.7,5.5,-19.9,19.6,5.6,-19.7,5.73,1.98,-11.9,24.7
2015-05-09 01:20:00,0.0,1.90947,0.00030,404.262,0.029,0.1642,0.0011,139.998,45.000,33991.86123,1.91255,405.062,32.042,45.068,45.000,0.00,0.09,-272.72,-272.77,2,950,-0,19.7,5.4,-20.1,19.6,5.5,-19.9,5.73,1.92,-11.9,24.7
2015-05-09 01:21:00,0.0,1.90954,0.00026,404.269,0.037,0.1681,0.0020,139.999,45.000,33991.57744,1.91270,405.091,32.031,45.068,45.000,0.00,0.09,-272.72,-272.78,3,949,-0,19.7,5.5,-19.9,19.6,5.6,-19.8,5.73,2.02,-11.9,24.7
2015-05-09 01:22:00,0.0,1.90922,0.00035,404.252,0.028,0.1705,0.0021,139.994,45.000,33995.07273,1.91245,405.084,32.022,45.068,45.000,0.00,0.09,-272.72,-272.78,3,950,-0,19.7,5.6,-19.7,19.6,5.7,-19.7,5.73,2.06,-11.9,24.7
2015-05-09 01:23:00,0.0,1.90896,0.00036,404.231,0.037,0.1731,0.0020,139.998,45.000,33992.81342,1.91224,405.076,32.011,45.068,45.000,0.00,0.09,-272.72,-272.77,3,951,-0,19.7,5.7,-19.5,19.6,5.8,-19.4,5.73,1.99,-11.9,24.7
2015-05-09 01:24:00,0.0,1.90919,0.00039,404.271,0.030,0.1683,0.0017,139.996,45.000,33993.13449,1.91235,405.093,32.003,45.068,45.000,0.00,0.09,-272.72,-272.78,2,951,-0,19.7,5.5,-19.8,19.6,5.7,-19.6,5.73,1.92,-11.9,24.7
2015-05-09 01:25:00,0.0,1.90944,0.00036,404.274,0.029,0.1694,0.0015,140.000,45.000,33993.61548,1.91264,405.099,32.005,45.069,45.000,0.00,0.09,-272.73,-272.78,3,949,-0,19.7,5.5,-19.8,19.6,5.6,-19.7,5.73,2.00,-11.9,24.7
2015-05-09 01:26:00,0.0,1.90964,0.00040,404.266,0.025,0.1693,0.0018,139.999,45.000,33989.00692,1.91279,405.094,32.001,45.069,45.000,0.00,0.09,-272.72,-272.77,4,949,-0,19.7,5.6,-19.8,19.6,5.7,-19.6,5.73,2.06,-11.9,24.7
2015-05-09 01:27:00,0.0,1.90963,0.00025,404.277,0.027,0.1681,0.0016,140.000,45.000,33993.96706,1.91281,405.097,32.000,45.069,45.000,0.00,0.09,-272.72,-272.77,3,952,-0,19.7,5.5,-19.9,19.6,5.6,-19.7,5.73,2.00,-11.9,24.7
2015-05-09 01:28:00,0.0,1.90987,0.00027,404.264,0.023,0.1672,0.0017,140.004,45.000,33995.45047,1.91301,405.080,32.000,45.069,45.000,0.00,0.09,-272.72,-272.78,3,951,-0,19.7,5.5,-20.0,19.6,5.6,-19.8,5.73,1.93,-11.9,24.7
2015-05-09 01:29:00,0.0,1.90953,0.00039,404.291,0.031,0.1660,0.0012,139.998,45.000,33992.59292,1.91270,405.102,32.001,45.069,45.000,0.00,0.09,-272.72,-272.78,2,948,-0,19.7,5.4,-20.0,19.6,5.6,-19.9,5.73,1.99,-11.9,24.7
2015-05-09 01:30:00,0.0,1.90959,0.00040,404.301,0.038,0.1657,0.0017,140.000,45.000,33996.39916,1.91268,405.109,31.999,45.069,45.000,0.00,0.09,-272.71,-272.77,3,949,-0,19.7,5.4,-20.0,19.6,5.5,-19.9,5.73,2.06,-11.9,24.7
2015-05-09 01:31:00,0.0,1.90959,0.00033,404.262,0.030,0.1677,0.0021,139.999,45.000,33994.30367,1.91276,405.079,32.000,45.068,45.000,0.00,0.09,-272.73,-272.78,3,951,-0,19.7,5.5,-19.9,19.6,5.6,-19.9,5.73,2.03,-11.8,24.7
2015-05-09 01:32:00,0.0,1.90943,0.00031,404.272,0.031,0.1697,0.0020,140.003,45.000,33996.02722,1.91265,405.101,32.000,45.068,45.000,0.00,0.09,-272.73,-272.79,3,950,-0,19.7,5.6,-19.8,19.6,5.6,-19.7,5.73,1.93,-11.9,24.7
2015-05-09 01:33:00,0.0,1.90960,0.00039,404.277,0.037,0.1716,0.0016,139.998,45.000,33992.50602,1.91286,405.115,32.001,45.069,45.000,0.00,0.09,-272.72,-272.77,3,949,-0,19.7,5.6,-19.7,19.6,5.7,-19.6,5.73,1.96,-11.8,24.7
2015-05-09 01:34:00,0.0,1.90964,0.00036,404.254,0.029,0.1738,0.0019,140.003,45.000,33993.15087,1.91293,405.103,32.000,45.068,45.000,0.00,0.09,-272.72,-272.78,3,949,-0,19.7,5.7,-19.5,19.6,5.8,-19.4,5.73,2.05,-11.8,24.7
2015-05-09 01:35:00,0.0,1.90933,0.00022,404.223,0.021,0.1793,0.0023,139.999,45.000,33995.47604,1.91267,405.097,32.006,45.068,45.000,0.00,0.09,-272.73,-272.78,3,951,-0,19.7,5.9,-19.1,19.6,5.9,-19.2,5.73,2.03,-11.9,24.7
2015-05-09 01:36:00,0.0,1.90934,0.00028,404.216,0.027,0.1836,0.0015,139.998,45.000,33993.71631,1.91281,405.112,32.001,45.069,45.000,0.00,0.09,-272.72,-272.78,2,951,-0,19.7,6.0,-18.8,19.6,6.1,-18.9,5.73,1.93,-11.8,24.7
2015-05-09 01:37:00,0.0,1.90940,0.00042,404.229,0.025,0.1779,0.0032,140.002,45.000,33992.99055,1.91278,405.097,32.000,45.068,45.000,0.00,0.09,-272.72,-272.77,3,949,-0,19.7,5.9,-19.0,19.6,6.1,-18.9,5.73,1.96,-11.8,24.7
2015-05-09 01:38:00,0.0,1.90916,0.00049,404.267,0.034,0.1743,0.0015,139.996,45.000,33995.14002,1.91243,405.118,32.002,45.068,45.000,0.00,0.09,-272.73,-272.77,4,949,-0,19.7,5.7,-19.4,19.6,5.9,-19.2,5.73,2.05,-11.9,24.7
2015-05-09 01:39:00,0.0,1.90938,0.00040,404.251,0.028,0.1735,0.0019,140.004,45.000,34000.47246,1.91263,405.098,32.012,45.068,45.000,0.00,0.09,-272.73,-272.78,3,951,-0,19.7,5.7,-19.5,19.6,5.8,-19.3,5.73,2.04,-11.9,24.7
2015-05-09 01:40:00,0.0,1.90952,0.00039,404.274,0.042,0.1712,0.0016,139.997,45.000,33995.07806,1.91278,405.110,32.010,45.068,45.000,0.00,0.09,-272.71,-272.77,2,952,-0,19.7,5.6,-19.6,19.6,5.8,-19.4,5.73,1.96,-11.8,24.7
2015-05-09 01:41:00,0.0,1.90958,0.00029,404.279,0.036,0.1732,0.0023,140.002,45.000,33997.89622,1.91282,405.124,32.003,45.068,45.000,0.00,0.09,-272.72,-272.78,2,951,-0,19.7,5.7,-19.6,19.6,5.7,-19.5,5.73,1.94,-11.8,24.7
2015-05-09 01:42:00,0.0,1.90909,0.00031,404.250,0.030,0.1727,0.0017,140.003,45.000,34001.91185,1.91237,405.094,32.004,45.068,45.000,0.00,0.09,-272.73,-272.78,3,949,-0,19.7,5.7,-19.5,19.6,5.8,-19.4,5.73,2.02,-11.8,24.7
2015-05-09 01:43:00,0.0,1.90968,0.00030,404.236,0.037,0.1752,0.0018,139.997,45.000,33996.63141,1.91296,405.092,32.000,45.068,45.000,0.00,0.09,-272.71,-272.77,3,951,-0,19.7,5.7,-19.5,19.6,5.8,-19.3,5.73,2.06,-11.9,24.7
2015-05-09 01:44:00,0.0,1.90964,0.00037,404.230,0.034,0.1711,0.0016,140.001,45.000,33998.91904,1.91286,405.064,32.000,45.069,45.000,0.00,0.09,-272.72,-272.78,3,952,-0,19.7,5.6,-19.6,19.6,5.8,-19.4,5.73,1.97,-11.8,24.7
2015-05-09 01:45:00,0.0,1.90949,0.00037,404.247,0.036,0.1704,0.0017,139.999,45.000,34000.83773,1.91269,405.079,32.001,45.069,45.000,0.00,0.09,-272.72,-272.78,2,952,-0,19.7,5.6,-19.7,19.6,5.7,-19.6,5.73,1.93,-11.8,24.7
2015-05-09 01:46:00,0.0,1.90924,0.00029,404.237,0.028,0.1719,0.0017,139.999,45.000,34000.47060,1.91251,405.076,32.001,45.068,45.000,0.00,0.09,-272.72,-272.78,2,950,-0,19.7,5.6,-19.6,19.6,5.7,-19.5,5.73,2.00,-11.8,24.7